Lapse_Rate
5.2 5.1 5.0 5.1 4.9 3.8 3.8 4.2 3.7 3.7 4.1 4.4 4.5 4.8 4.9 5.1 5.3 5.4 5.1 5.1 5.0 5.2 5.2 5.0 5.1 5.5 5.8 5.9 5.9 5.6 5.2 5.0 4.4 4.7 5.9 5.7 5.7 5.6 5.7 6.0 5.8 5.7 6.1 6.3
5.4 5.5 5.5 5.5 5.3 4.7 4.1 3.8 3.6 3.8 4.1 5.0 5.3 5.7 5.8 5.7 5.6 5.5 5.2 5.2 5.1 5.4 5.1 5.1 5.0 5.3 5.5 5.7 5.6 5.2 5.0 4.7 4.5 4.8 5.6 6.2 5.5 5.7 5.2 5.4 5.6 5.9 5.7 6.3
5.8 5.9 5.8 5.8 5.6 5.1 4.6 4.2 4.3 4.5 4.7 5.4 5.6 5.4 5.5 5.8 5.6 6.0 5.8 5.5 5.7 5.5 5.4 5.4 5.2 5.4 5.2 5.3 5.5 5.2 5.1 4.9 4.9 4.7 4.8 4.6 4.5 6.2 6.2 5.4 5.1 5.5 5.4 5.5
6.1 6.2 6.1 6.0 5.7 5.3 4.9 4.1 4.2 4.4 5.0 5.1 6.0 6.1 5.9 6.1 6.0 5.9 5.7 5.9 5.5 5.7 5.5 5.5 5.4 5.3 5.1 5.7 5.7 5.2 5.3 4.9 5.4 5.2 5.0 4.8 4.6 4.6 6.1 5.8 6.0 5.1 5.5 5.3
6.1 6.2 6.1 5.7 5.4 5.1 5.0 4.8 4.8 4.9 4.8 5.0 5.5 6.0 5.8 6.0 5.9 6.1 6.0 6.2 6.1 5.8 5.7 5.6 5.2 5.4 5.5 5.1 5.8 5.9 5.5 5.3 5.4 4.9 5.5 5.7 5.0 6.1 6.2 6.4 6.2 5.8 5.6 5.4
6.1 5.9 5.6 5.4 5.1 4.9 4.9 4.8 5.1 4.9 5.8 6.0 5.7 6.3 6.3 6.2 6.2 6.1 6.1 6.1 6.2 6.3 6.5 6.2 5.9 5.6 5.6 5.7 5.5 5.9 5.5 6.0 6.1 5.3 6.2 6.1 6.2 7.1 6.7 6.4 6.1 5.7 5.4 5.3
5.8 5.6 5.5 5.2 5.0 4.9 4.8 4.8 5.0 5.2 6.1 6.3 6.5 6.4 6.2 6.1 6.1 5.8 6.3 6.3 6.4 6.0 6.1 6.1 6.0 6.1 6.1 6.3 6.6 6.3 5.7 6.2 6.4 6.3 6.4 5.0 8.0 7.5 7.1 6.8 6.5 6.1 5.6 5.5
5.7 5.5 5.5 5.1 4.9 4.9 4.8 5.0 5.1 5.4 5.9 6.4 6.8 6.1 6.0 5.5 5.7 6.0 5.9 6.4 6.2 6.0 6.0 5.7 5.3 5.7 6.2 6.5 6.6 6.7 6.6 6.2 6.5 6.6 6.7 7.2 7.7 7.4 6.8 6.7 6.4 5.9 5.6 5.3
5.6 5.5 5.2 5.1 4.9 4.8 4.8 4.9 5.1 5.5 6.0 6.3 6.1 5.9 5.6 5.3 5.5 5.5 5.6 6.1 6.2 6.1 5.9 5.6 5.4 5.5 5.9 6.0 6.1 6.7 7.1 6.7 6.7 6.7 7.0 5.4 7.0 7.3 7.0 6.8 6.5 5.9 5.6 5.0
5.7 5.5 5.3 5.2 5.0 4.6 4.7 4.8 4.7 5.0 5.6 6.2 5.8 5.8 5.7 5.2 5.2 4.7 5.1 5.2 5.7 5.8 5.6 5.4 5.6 5.6 5.9 5.9 6.3 6.6 7.0 6.9 6.9 7.2 7.0 7.0 7.3 7.2 7.1 6.8 6.2 6.1 5.9 5.5
5.7 5.4 5.4 5.2 4.8 4.6 4.4 4.7 4.3 4.5 5.0 6.1 5.8 5.3 5.1 5.0 5.1 4.9 4.9 4.9 5.3 5.4 5.5 5.6 5.7 5.7 6.2 6.4 6.3 6.6 7.0 7.1 7.2 7.0 6.7 6.5 7.1 7.2 7.1 6.5 6.2 6.1 6.0 5.8
5.7 5.4 5.3 5.3 4.9 4.6 4.4 4.6 4.5 4.7 4.6 5.4 5.4 5.4 5.4 5.1 5.3 5.0 4.9 5.1 5.0 5.2 5.3 5.4 5.5 5.8 6.3 6.5 6.3 6.9 7.1 7.2 7.3 7.4 7.4 7.2 7.2 7.0 6.8 6.5 6.4 6.2 6.2 6.1
5.9 5.5 5.4 5.2 5.0 4.7 4.6 4.7 4.8 5.1 4.7 4.7 5.0 5.3 5.4 5.6 5.6 5.1 4.9 5.1 5.3 5.6 5.4 5.5 5.7 5.9 6.1 6.1 6.5 7.0 6.9 7.1 7.1 7.4 7.4 7.4 7.2 7.0 6.8 6.3 6.3 6.2 6.1 6.0
5.9 5.5 5.3 5.2 5.0 4.7 4.6 4.7 4.7 4.6 4.6 4.7 5.1 5.4 5.7 6.0 6.0 6.0 6.0 5.8 5.5 5.5 5.7 5.8 6.0 6.2 6.4 6.5 6.7 6.9 7.1 7.1 7.0 7.1 7.1 7.0 7.2 6.9 6.8 6.5 6.1 6.1 6.0 6.1
5.8 5.5 5.3 5.2 4.9 4.8 4.5 4.6 4.7 5.1 5.0 4.9 5.4 6.0 6.3 6.4 6.2 6.2 6.3 6.3 6.4 6.5 6.6 6.7 6.8 6.8 6.7 6.8 6.8 6.8 7.0 7.1 6.9 7.2 7.1 7.0 6.9 6.6 6.5 6.3 6.1 6.1 6.0 6.0
5.9 5.5 5.2 5.1 4.9 4.7 4.6 4.6 4.6 4.8 4.8 5.1 5.9 6.4 6.6 6.7 6.6 6.6 6.5 6.6 6.7 6.8 6.7 6.8 6.7 6.9 6.9 6.8 7.1 7.0 7.0 6.8 6.8 6.9 6.9 6.8 6.7 6.4 6.2 6.2 6.0 6.0 6.1 6.1
5.8 5.5 5.2 5.1 4.9 4.6 4.4 4.2 4.8 4.6 5.0 5.3 5.9 6.5 6.9 6.9 6.9 7.0 7.0 7.2 7.2 7.1 6.8 6.7 6.7 6.9 6.9 6.9 6.8 6.4 6.5 6.6 6.5 6.6 6.7 6.7 6.6 6.3 6.0 6.1 6.0 6.0 6.0 6.2
5.7 5.5 5.3 5.2 4.9 4.6 4.3 4.4 4.6 4.8 5.0 5.7 6.2 6.8 7.1 7.3 7.3 7.3 7.3 7.3 7.0 6.8 6.6 6.6 6.6 6.7 6.9 6.7 6.3 6.3 6.4 6.4 6.2 6.2 6.2 6.3 6.3 6.1 5.9 6.0 6.0 6.0 6.2 6.4
5.8 5.6 5.4 5.1 4.7 4.3 4.4 4.6 4.7 4.8 5.0 5.4 6.2 6.8 7.1 7.4 7.3 7.4 7.2 7.0 6.7 6.6 6.6 6.5 6.5 6.6 6.6 6.1 6.1 6.1 6.2 6.2 6.1 6.1 5.9 5.8 5.9 6.0 5.9 5.8 5.9 5.9 6.1 6.3
5.9 5.6 5.4 4.8 4.3 4.5 4.9 4.7 4.9 5.1 5.3 5.7 6.6 7.0 7.2 7.3 7.3 7.3 7.0 6.7 6.7 6.6 6.6 6.6 6.5 6.5 6.2 6.2 6.0 5.9 5.9 5.8 5.8 5.7 5.6 5.6 5.6 5.5 5.5 5.5 5.5 5.6 5.6 5.8
6.0 5.5 5.0 4.5 4.4 4.4 4.8 4.8 5.0 5.4 5.6 5.9 6.5 6.9 7.2 7.3 7.3 7.4 7.0 6.9 6.8 6.7 6.7 6.7 6.6 6.5 6.3 6.2 6.1 6.0 6.0 6.0 5.9 5.9 5.8 5.8 5.7 5.6 5.5 5.5 5.5 5.6 5.6 5.6
5.6 5.2 4.6 4.3 4.2 4.7 4.9 5.0 5.3 5.6 5.7 5.7 6.1 6.5 7.1 7.4 7.4 7.4 7.1 6.9 6.9 6.8 6.7 6.7 6.7 6.6 6.4 6.3 6.3 6.2 6.2 6.2 6.2 6.1 6.0 5.9 5.8 5.7 5.7 5.7 5.7 5.7 5.7 5.7
5.3 4.8 4.3 4.2 4.2 4.7 4.9 5.0 5.1 5.6 5.8 6.0 6.2 6.6 6.9 7.5 7.4 7.3 7.2 7.1 7.0 7.0 6.8 6.8 6.8 6.7 6.6 6.5 6.5 6.5 6.5 6.5 6.5 6.5 6.4 6.2 6.1 5.9 5.8 5.8 5.8 5.7 5.7 5.7
5.0 4.5 4.2 4.2 4.3 4.6 4.8 5.1 5.2 5.5 5.9 6.2 6.5 6.8 6.8 7.3 7.5 7.5 7.5 7.2 7.2 7.0 6.9 6.9 6.9 6.7 6.6 6.6 6.7 6.7 6.7 6.7 6.6 6.6 6.5 6.4 6.3 6.2 6.1 6.0 5.9 5.9 5.7 5.7
4.9 4.6 4.3 4.1 4.5 4.8 4.8 5.1 5.4 5.7 6.0 6.2 6.3 6.6 6.9 7.4 7.6 7.5 7.4 7.4 7.2 7.2 7.3 7.1 6.8 6.7 6.5 6.5 6.5 6.5 6.6 6.6 6.6 6.7 6.7 6.6 6.5 6.2 6.1 6.1 6.0 5.9 6.0 6.0
4.9 4.4 4.5 4.5 4.7 4.8 5.1 5.3 5.6 5.9 6.1 6.2 6.2 6.1 6.2 6.7 7.3 7.4 7.5 7.3 7.3 7.3 7.3 7.1 6.8 6.6 6.4 6.3 6.3 6.3 6.3 6.3 6.3 6.4 6.5 6.5 6.5 6.4 6.3 6.1 6.0 6.0 6.0 5.9
5.0 4.4 4.4 4.5 4.8 4.9 5.2 5.5 5.8 6.1 6.2 6.2 6.1 6.1 6.4 6.5 6.6 6.9 7.3 7.4 7.3 7.0 6.6 6.2 6.0 6.0 5.9 5.9 5.9 5.9 5.9 5.9 6.0 6.1 6.1 6.1 6.2 6.2 6.1 6.1 6.0 5.8 5.8 5.9
Wind_Speed
22 24 25 14 12 6 3 1 2 2 2 3 1 2 4 3 4 2 3 2 3 4 4 4 4 5 3 5 1 2 1 4 5 8 19 9 7 5 5 4 7 4 3 6
21 21 20 21 17 9 3 2 3 1 3 2 3 4 5 5 3 4 3 4 6 3 3 3 4 4 4 4 1 2 2 2 6 8 5 5 3 10 11 10 7 4 3 5
18 18 20 22 16 3 3 2 1 2 1 2 2 3 5 4 2 4 4 4 2 2 3 5 5 3 2 2 4 5 2 3 5 7 10 10 16 22 17 10 7 10 11 14
17 17 18 22 18 12 3 2 2 0 3 2 3 1 3 2 4 4 2 4 5 1 3 3 6 6 4 6 9 5 3 5 8 12 12 14 18 20 24 17 16 11 19 19
15 17 18 19 19 9 2 0 2 1 2 1 2 3 4 5 4 3 5 5 7 5 6 8 12 10 4 4 5 4 3 5 2 10 13 15 19 21 18 20 20 18 20 24
15 16 15 17 17 8 2 0 1 2 3 3 3 5 6 4 2 7 9 6 6 8 12 10 11 10 8 11 6 5 3 2 2 10 4 8 10 10 7 4 8 6 6 11
15 12 15 12 13 10 1 1 0 1 5 3 4 4 7 14 10 14 16 9 8 2 3 6 7 11 15 16 16 11 8 3 2 6 3 2 6 4 4 6 5 10 9 15
13 14 14 13 10 7 3 0 1 2 6 2 7 5 5 9 7 10 13 12 4 1 1 3 5 4 5 3 2 8 13 6 3 3 3 7 8 4 4 5 3 7 8 12
15 13 12 13 12 8 2 2 2 2 3 4 2 2 4 3 7 8 2 3 3 2 1 0 3 3 4 4 2 5 3 3 3 1 3 5 1 6 8 5 1 9 9 12
17 18 18 15 14 12 2 3 4 2 3 5 3 3 3 2 4 4 4 5 5 2 2 2 3 4 3 2 1 3 1 1 3 4 3 7 4 9 7 1 4 10 11 9
17 18 18 17 16 16 7 3 10 4 3 6 5 4 3 2 2 3 3 4 2 1 1 2 3 2 3 1 3 3 3 4 3 1 1 5 7 4 4 5 4 10 11 12
17 16 17 18 17 16 15 3 5 11 5 6 3 5 10 9 10 7 3 4 2 3 2 2 3 3 2 3 2 3 2 4 2 4 2 7 10 11 7 9 6 10 12 12
20 19 18 18 16 15 15 3 1 1 2 4 3 6 4 3 3 4 2 2 4 3 2 1 2 3 2 2 3 2 2 1 1 2 4 7 10 7 13 12 12 13 12 11
23 22 22 19 21 15 14 2 2 2 2 3 4 1 1 2 3 2 1 1 2 1 1 2 2 1 2 2 1 2 3 7 5 3 4 1 11 12 12 13 12 14 14 10
22 22 23 21 21 18 12 7 4 5 2 3 4 3 2 2 3 1 1 2 1 1 2 3 3 2 1 2 3 4 5 5 3 2 5 4 5 10 13 12 14 14 14 15
27 27 22 18 19 15 2 2 2 3 3 3 2 1 3 2 2 3 2 2 2 2 2 2 3 3 1 2 3 4 6 5 5 4 11 7 9 5 14 12 14 14 12 11
30 25 22 14 12 1 1 1 4 3 2 1 3 4 3 1 2 2 1 2 2 2 2 2 2 1 2 3 3 9 8 9 2 7 9 2 9 7 11 12 11 12 8 8
28 20 10 8 9 10 3 3 11 5 1 1 1 4 4 2 2 2 0 1 1 2 2 2 3 3 4 4 5 7 9 9 5 12 6 4 7 8 9 10 10 11 11 11
25 16 4 4 4 2 1 8 5 6 1 1 1 1 3 3 2 1 3 2 2 1 1 2 3 4 5 5 6 7 8 5 8 10 4 7 7 10 10 10 11 10 11 11
15 6 3 2 1 11 6 2 2 2 2 2 0 0 3 3 2 3 2 1 1 2 1 2 3 3 4 4 4 3 5 5 6 5 8 9 11 11 11 10 9 8 9 10
3 3 2 2 7 2 3 2 3 3 0 1 1 2 1 2 1 2 0 2 1 2 2 2 2 2 2 5 5 4 5 5 5 2 3 5 5 7 9 10 10 10 10 11
5 4 1 1 3 3 5 2 3 2 2 3 1 2 1 3 1 2 2 1 2 2 2 2 2 2 4 5 6 6 7 7 7 7 7 7 8 8 8 9 10 10 10 11
2 0 1 3 3 6 4 5 3 3 4 3 3 3 1 1 2 2 2 2 3 1 3 2 2 3 5 5 6 5 7 7 7 8 8 8 8 8 9 9 10 10 10 11
2 2 2 3 3 2 2 2 2 2 3 7 5 2 1 1 1 1 1 3 2 3 2 1 1 3 4 4 4 5 6 7 7 7 7 7 8 7 8 9 8 9 10 10
1 0 1 2 1 3 3 2 2 3 3 3 4 2 1 2 1 1 1 3 2 3 1 2 2 3 4 5 4 4 4 4 5 5 6 6 7 6 6 8 7 7 7 9
2 6 2 3 2 3 3 3 2 3 6 3 2 2 2 3 2 3 3 3 3 2 2 1 2 4 5 5 3 4 2 4 3 3 3 4 6 6 5 6 7 7 8 7
3 1 2 1 3 1 0 1 3 3 3 2 2 3 1 3 2 3 4 3 2 2 1 2 3 4 4 5 4 4 3 4 4 3 3 3 4 4 6 8 7 6 7 5
Wind_Direction
16 11 13 350 281 161 94 218 291 299 60 46 133 227 213 294 267 178 273 231 238 228 282 257 250 245 358 76 116 287 323 311 286 264 286 306 259 44 1 310 330 285 261 281
16 16 12 14 360 160 122 178 246 289 94 190 229 270 263 224 231 228 210 248 212 194 255 298 246 275 201 146 120 157 309 300 311 333 342 16 347 313 329 314 278 258 259 268
12 8 6 1 355 280 99 103 279 312 30 3 223 283 267 263 269 276 248 262 308 232 263 232 274 266 312 159 193 287 172 229 223 265 280 297 302 304 308 301 287 304 271 299
17 9 7 6 358 122 105 38 256 22 287 285 239 337 310 279 291 256 294 321 234 185 263 273 249 236 310 292 272 167 224 252 235 253 270 284 282 282 294 288 272 261 290 288
14 15 13 12 24 11 34 236 196 177 264 187 281 210 230 220 264 231 252 213 251 193 210 211 270 287 263 222 308 146 189 260 265 273 266 267 277 273 270 276 275 267 268 281
9 5 11 13 8 2 23 11 19 129 231 191 221 231 235 258 279 244 246 252 258 242 247 269 252 248 250 252 218 220 233 231 212 277 318 321 287 267 256 300 38 330 301 331
354 7 5 3 13 24 310 34 129 222 274 219 211 258 261 298 280 283 286 280 290 264 354 317 276 259 255 252 246 234 241 210 228 279 34 263 233 22 50 133 53 17 357 354
349 350 341 339 355 357 55 236 298 262 280 290 290 279 272 290 289 291 283 278 305 3 298 323 327 307 342 318 62 226 223 216 241 233 186 299 313 25 11 359 30 1 358 356
341 335 335 328 335 333 113 239 174 250 292 252 295 289 244 262 312 301 282 259 316 312 268 236 248 253 239 298 287 3 63 205 212 132 229 234 289 307 293 214 246 355 359 4
346 350 351 344 335 317 269 242 179 129 262 265 203 229 241 252 276 285 311 332 334 52 207 220 224 232 217 275 234 211 319 156 202 243 252 285 292 299 292 150 7 345 357 4
337 334 328 328 325 325 329 238 197 182 241 266 226 218 202 235 219 282 280 343 340 289 247 232 254 189 247 59 221 196 210 173 213 120 203 294 347 4 54 334 4 5 0 357
331 326 319 322 317 315 315 265 221 212 228 263 279 249 237 216 225 252 207 224 213 270 256 328 322 295 356 183 260 310 252 208 184 210 223 46 40 64 26 6 359 3 352 349
335 335 330 322 305 302 300 262 211 284 285 260 257 262 311 98 154 179 207 274 213 226 217 317 316 291 130 269 253 303 312 309 187 24 37 68 49 41 26 13 6 349 347 342
326 324 323 318 323 310 301 251 204 184 269 266 278 39 41 26 53 76 99 147 351 332 278 250 242 281 198 252 234 150 350 325 344 223 55 147 70 43 8 357 359 348 343 343
324 314 314 313 315 313 309 279 235 213 213 295 282 325 342 52 77 111 69 155 257 240 245 216 235 242 186 213 122 42 359 1 351 351 30 301 296 16 7 358 350 342 336 342
326 325 309 300 303 306 326 321 355 1 164 297 309 318 5 342 297 252 240 202 218 238 256 234 233 265 177 250 72 36 13 346 326 328 321 278 298 294 9 347 340 333 337 344
336 335 320 312 317 311 185 39 352 244 56 317 318 329 313 317 335 316 3 184 239 218 252 227 252 259 51 44 57 338 340 327 319 2 333 29 29 335 341 336 327 330 327 337
338 344 23 34 83 100 49 354 12 33 66 25 347 279 345 2 326 335 11 311 336 295 269 301 353 41 48 62 352 348 346 338 23 351 350 324 312 341 343 339 342 351 352 343
337 331 342 56 40 43 269 325 40 66 41 323 134 167 277 357 289 257 349 85 356 310 344 22 57 35 49 346 343 354 359 1 315 328 358 351 357 348 352 348 353 351 346 344
348 35 24 62 22 317 327 33 9 26 9 23 210 93 293 32 348 313 15 31 269 8 13 42 66 79 118 25 1 351 349 342 343 359 6 354 359 355 351 350 342 339 340 340
25 8 23 248 318 7 34 24 32 333 162 332 269 138 269 343 31 287 36 269 278 21 308 21 91 85 50 1 3 6 354 346 346 316 311 324 323 343 347 352 356 354 356 357
301 298 48 347 28 36 66 340 339 50 324 342 19 285 228 293 59 69 322 231 26 269 320 65 85 74 17 1 9 23 9 5 13 17 13 5 8 5 2 7 5 4 3 1
65 57 26 49 324 37 64 346 333 358 350 21 329 316 247 297 56 343 40 39 239 317 46 74 60 38 11 12 9 11 12 13 15 15 12 6 4 12 14 14 9 5 13 10
23 19 24 95 35 91 47 316 312 335 347 329 309 260 236 284 336 186 73 249 62 32 67 83 34 354 358 7 25 21 8 10 13 7 4 5 5 359 9 10 12 11 16 8
102 341 51 79 49 61 73 355 32 358 300 323 311 300 91 277 309 175 13 1 56 43 66 56 21 1 358 358 21 20 20 11 8 356 5 2 356 1 3 6 359 13 18 20
73 27 62 342 60 345 14 1 309 335 323 279 240 260 15 278 177 51 16 324 49 43 38 22 357 6 356 349 8 8 19 18 8 1 346 4 10 1 346 347 7 7 14 24
58 62 54 62 73 151 261 347 293 306 357 32 320 339 22 302 62 44 18 46 19 2 36 34 17 7 351 344 353 11 15 17 1 348 358 1 350 358 19 12 1 353 357 3